Medford, WI

6:27 AM CST on November 17, 2019 (GMT -0600)
Taylor County

Weather History for KMDZ - October, 2019

Change the Weather History Date:

Friday, October 18, 2019

  Actual Average Record
Temperature  
Mean Temperature 44 °F -  
Max Temperature 55 °F 53 °F 82 °F (1950)
Min Temperature 32 °F 33 °F 15 °F (1948)
Degree Days  
Heating Degree Days 22    
Moisture  
Dew Point 37 °F    
Average Humidity 78    
Maximum Humidity 97    
Minimum Humidity 57    
Precipitation  
Precipitation 0.00 in - - ()
Sea Level Pressure  
Sea Level Pressure 29.87 in    
Wind  
Wind Speed 8 mph (SSE)    
Max Wind Speed 17 mph    
Max Gust Speed 25 mph    
Visibility 10 miles    
Events      
Averages and records for this station are not official NWS values.
T = Trace of Precipitation, MM = Missing Value Source: NWS Daily Summary

Daily Weather History Graph

Daily Weather History Graph

Search for Another Location

Airport or City:

Astronomy

Oct. 18, 2019 Rise Set
Actual Time 7:20 AM CDT 6:11 PM CDT
Civil Twilight 6:50 AM CDT 6:41 PM CDT
Nautical Twilight 6:16 AM CDT 7:15 PM CDT
Astronomical Twilight 5:42 AM CDT 7:49 PM CDT
Moon 9:17 PM CDT (10/18) 12:03 PM CDT (10/18)
Length of Visible Light 11h 50m
Length of Day
10h 50m
Waning Gibbous, 78% of the Moon is Illuminated
Oct 18
Waning Gibbous
Oct 21
Last Quarter
Oct 27
New
Nov 4
First Quarter
Nov 12
Full

Hourly Weather History & Observations

Time (CDT) Temp. Windchill Dew Point Humidity Pressure Visibility Wind Dir Wind Speed Gust Speed Precip Events Conditions
12:15 AM 32.7 °F 28.3 °F 32.0 °F 97% 29.98 in 10.0 mi SE 4.6 mph - N/A   Clear
12:35 AM 34.9 °F 29.9 °F 32.7 °F 92% 29.98 in 10.0 mi SSE 5.8 mph - N/A   Clear
12:55 AM 33.1 °F 28.7 °F 32.0 °F 96% 29.98 in 10.0 mi SSE 4.6 mph - N/A   Clear
1:15 AM 33.4 °F 30.4 °F 32.2 °F 95% 29.99 in 10.0 mi SSE 3.5 mph - N/A   Clear
1:35 AM 34.2 °F 31.2 °F 32.9 °F 95% 29.99 in 10.0 mi SE 3.5 mph - N/A   Clear
1:55 AM 34.9 °F 29.9 °F 32.9 °F 92% 29.98 in 10.0 mi SSE 5.8 mph - N/A   Clear
2:15 AM 34.9 °F 30.8 °F 32.9 °F 92% 29.98 in 10.0 mi SSE 4.6 mph - N/A   Clear
2:35 AM 35.2 °F 30.3 °F 33.1 °F 92% 29.98 in 10.0 mi SSE 5.8 mph - N/A   Clear
2:55 AM 35.2 °F 30.3 °F 33.1 °F 92% 29.98 in 10.0 mi SSE 5.8 mph - N/A   Clear
3:15 AM 33.8 °F 28.6 °F 32.4 °F 94% 29.98 in 10.0 mi SSE 5.8 mph - N/A   Clear
3:35 AM 34.7 °F 28.8 °F 33.1 °F 94% 29.98 in 10.0 mi SSE 6.9 mph - N/A   Clear
3:55 AM 34.9 °F 29.9 °F 33.1 °F 93% 29.97 in 10.0 mi SSE 5.8 mph - N/A   Clear
4:15 AM 34.9 °F 29.9 °F 33.1 °F 93% 29.97 in 7.0 mi SSE 5.8 mph - N/A   Clear
4:35 AM 34.7 °F 30.6 °F 32.9 °F 93% 29.97 in 7.0 mi SE 4.6 mph - N/A   Clear
4:55 AM 34.0 °F 28.8 °F 32.4 °F 94% 29.97 in 10.0 mi SSE 5.8 mph - N/A   Clear
5:15 AM 34.7 °F 28.8 °F 32.9 °F 93% 29.97 in 10.0 mi SSE 6.9 mph - N/A   Clear
5:35 AM 34.7 °F 28.8 °F 32.9 °F 93% 29.97 in 7.0 mi SSE 6.9 mph - N/A   Clear
5:55 AM 35.1 °F 29.3 °F 33.1 °F 92% 29.96 in 10.0 mi SSE 6.9 mph - N/A   Clear
6:15 AM 35.1 °F 30.1 °F 33.1 °F 92% 29.96 in 10.0 mi SSE 5.8 mph - N/A   Clear
6:35 AM 35.2 °F 29.5 °F 33.1 °F 92% 29.96 in 10.0 mi SE 6.9 mph - N/A   Clear
6:55 AM 35.6 °F 29.2 °F 33.3 °F 91% 29.95 in 10.0 mi SSE 8.1 mph - N/A   Clear
7:15 AM 35.8 °F 28.8 °F 33.4 °F 91% 29.94 in 10.0 mi SE 9.2 mph - N/A   Clear
7:35 AM 36.0 °F 30.3 °F 33.8 °F 92% 29.94 in 10.0 mi SE 6.9 mph - N/A   Clear
7:55 AM 36.9 °F 30.7 °F 34.0 °F 89% 29.94 in 10.0 mi SE 8.1 mph - N/A   Clear
8:15 AM 37.4 °F 29.8 °F 34.3 °F 89% 29.94 in 10.0 mi SSE 11.5 mph 16.1 mph N/A   Clear
8:35 AM 37.8 °F 30.7 °F 35.1 °F 90% 29.94 in 10.0 mi SSE 10.4 mph 17.3 mph N/A   Clear
8:55 AM 38.3 °F 31.9 °F 35.2 °F 89% 29.94 in 10.0 mi SE 9.2 mph 16.1 mph N/A   Clear
9:15 AM 39.4 °F 32.7 °F 35.6 °F 86% 29.93 in 10.0 mi SSE 10.4 mph - N/A   Clear
9:35 AM 40.1 °F 34.7 °F 36.5 °F 87% 29.93 in 10.0 mi SSE 8.1 mph - N/A   Clear
9:55 AM 41.5 °F 35.0 °F 37.0 °F 84% 29.93 in 10.0 mi SSE 11.5 mph - N/A   Clear
10:15 AM 42.3 °F 35.5 °F 37.4 °F 83% 29.92 in 10.0 mi SSE 12.7 mph 16.1 mph N/A   Clear
10:35 AM 43.9 °F 38.3 °F 37.6 °F 78% 29.91 in 10.0 mi SSE 10.4 mph 17.3 mph N/A   Clear
10:55 AM 45.3 °F 39.7 °F 38.1 °F 76% 29.91 in 10.0 mi SSE 11.5 mph - N/A   Clear
11:15 AM 47.3 °F - 38.8 °F 72% 29.90 in 10.0 mi SSE 12.7 mph 20.7 mph N/A   Clear
11:35 AM 48.9 °F - 38.5 °F 67% 29.90 in 10.0 mi SSE 16.1 mph 24.2 mph N/A   Clear
11:55 AM 49.8 °F - 38.3 °F 65% 29.89 in 10.0 mi SSE 17.3 mph 25.3 mph N/A   Clear
12:15 PM 50.5 °F - 38.8 °F 64% 29.88 in 10.0 mi SSE 13.8 mph 24.2 mph N/A   Clear
12:35 PM 50.9 °F - 38.8 °F 63% 29.88 in 10.0 mi SSE 13.8 mph 21.9 mph N/A   Clear
12:55 PM 52.3 °F - 39.2 °F 61% 29.86 in 10.0 mi SE 13.8 mph 21.9 mph N/A   Clear
1:15 PM 52.5 °F - 39.4 °F 61% 29.85 in 10.0 mi SSE 15.0 mph 21.9 mph N/A   Clear
1:35 PM 52.7 °F - 39.6 °F 61% 29.84 in 10.0 mi SSE 11.5 mph 20.7 mph N/A   Clear
1:55 PM 53.2 °F - 40.1 °F 61% 29.83 in 10.0 mi SE 10.4 mph 20.7 mph N/A   Clear
2:15 PM 55.0 °F - 40.5 °F 58% 29.82 in 10.0 mi SE 13.8 mph 21.9 mph N/A   Clear
2:35 PM 55.2 °F - 40.3 °F 57% 29.81 in 10.0 mi SE 15.0 mph 20.7 mph N/A   Clear
2:55 PM 53.8 °F - 40.1 °F 60% 29.80 in 10.0 mi SE 10.4 mph 18.4 mph N/A   Clear
3:15 PM 54.3 °F - 40.3 °F 59% 29.79 in 10.0 mi SSE 12.7 mph 21.9 mph N/A   Clear
3:35 PM 54.5 °F - 40.6 °F 60% 29.79 in 10.0 mi SE 12.7 mph 20.7 mph N/A   Clear
3:55 PM 53.2 °F - 40.1 °F 61% 29.78 in 10.0 mi SSE 16.1 mph 21.9 mph N/A   Clear
4:15 PM 53.4 °F - 40.1 °F 61% 29.78 in 10.0 mi SE 16.1 mph 24.2 mph N/A   Clear
4:35 PM 54.5 °F - 40.1 °F 58% 29.77 in 10.0 mi SE 15.0 mph 24.2 mph N/A   Clear
4:55 PM 54.1 °F - 40.1 °F 59% 29.77 in 10.0 mi SSE 16.1 mph 23.0 mph N/A   Clear
5:15 PM 53.6 °F - 40.1 °F 60% 29.76 in 10.0 mi SE 12.7 mph 19.6 mph N/A   Clear
5:35 PM 52.5 °F - 40.1 °F 63% 29.76 in 10.0 mi SE 15.0 mph 20.7 mph N/A   Clear
5:55 PM 51.6 °F - 39.6 °F 63% 29.76 in 10.0 mi SE 9.2 mph 18.4 mph N/A   Clear
6:15 PM 50.0 °F - 39.4 °F 67% 29.76 in 10.0 mi SE 11.5 mph 17.3 mph N/A   Clear
6:35 PM 49.5 °F - 39.2 °F 68% 29.76 in 10.0 mi SE 10.4 mph 18.4 mph N/A   Clear
6:55 PM 49.3 °F - 39.2 °F 68% 29.75 in 10.0 mi SE 10.4 mph 17.3 mph N/A   Clear
7:15 PM 48.4 °F - 39.2 °F 71% 29.76 in 10.0 mi SE 9.2 mph - N/A   Clear
7:35 PM 48.6 °F - 39.2 °F 70% 29.76 in 10.0 mi SE 11.5 mph 20.7 mph N/A   Clear
7:55 PM 48.0 °F - 39.0 °F 71% 29.76 in 10.0 mi SE 10.4 mph 19.6 mph N/A   Clear
8:15 PM 47.8 °F - 38.8 °F 71% 29.76 in 10.0 mi SE 11.5 mph 23.0 mph N/A   Clear
8:35 PM 47.7 °F - 38.7 °F 71% 29.75 in 10.0 mi SE 10.4 mph 21.9 mph N/A   Clear
8:55 PM 47.7 °F - 38.7 °F 71% 29.75 in 10.0 mi SE 13.8 mph 20.7 mph N/A   Clear
9:15 PM 47.3 °F - 38.7 °F 72% 29.75 in 10.0 mi SE 12.7 mph 18.4 mph N/A   Clear
9:35 PM 46.8 °F - 38.8 °F 74% 29.76 in 10.0 mi SSE 11.5 mph 18.4 mph N/A   Clear
9:55 PM 46.2 °F 41.2 °F 38.7 °F 75% 29.76 in 10.0 mi SSE 10.4 mph 16.1 mph N/A   Clear
10:15 PM 45.5 °F 40.8 °F 38.7 °F 77% 29.76 in 10.0 mi SSE 9.2 mph 17.3 mph N/A   Scattered Clouds
10:35 PM 45.3 °F 41.1 °F 38.7 °F 78% 29.76 in 10.0 mi SSE 8.1 mph - N/A   Scattered Clouds
10:55 PM 44.8 °F 39.9 °F 38.7 °F 79% 29.75 in 10.0 mi SSE 9.2 mph - N/A   Scattered Clouds
11:15 PM 44.4 °F 40.0 °F 38.7 °F 80% 29.75 in 10.0 mi SSE 8.1 mph - N/A   Clear
11:35 PM 44.1 °F 39.0 °F 38.7 °F 81% 29.75 in 10.0 mi SSE 9.2 mph - N/A   Clear
11:55 PM 43.7 °F 39.7 °F 38.5 °F 82% 29.75 in 10.0 mi SSE 6.9 mph - N/A   Mostly Cloudy